Time,TemperatureF,DewpointF,PressureIn,WindDirection,WindDirectionDegrees,WindSpeedMPH,WindSpeedGustMPH,Humidity,HourlyPrecipIn,Conditions,Clouds,dailyrainin,SoftwareType,DateUTC
2013-01-06 15:00:00,54.0,22.0,-100.00,NNW,348,7.0,-999.0,29,0.00,,,0.00,,2013-01-06 21:00:00,
2013-01-06 15:43:00,54.0,22.0,-100.00,NNW,348,7.0,-999.0,29,0.00,,,0.00,,2013-01-06 21:43:00,
2013-01-06 15:53:00,54.0,22.0,-100.00,NNW,348,7.0,-999.0,29,0.00,,,0.00,,2013-01-06 21:53:00,
2013-01-06 16:00:00,54.0,25.0,-100.00,North,350,7.0,-999.0,32,0.00,,,0.00,,2013-01-06 22:00:00,
2013-01-06 16:33:00,54.0,25.0,-100.00,North,350,7.0,-999.0,32,0.00,,,0.00,,2013-01-06 22:33:00,
2013-01-06 16:43:00,54.0,25.0,-100.00,North,350,7.0,-999.0,32,0.00,,,0.00,,2013-01-06 22:43:00,
2013-01-06 16:53:00,54.0,25.0,-100.00,North,350,7.0,-999.0,32,0.00,,,0.00,,2013-01-06 22:53:00,
2013-01-06 17:00:00,52.0,23.0,-100.00,North,10,7.0,-999.0,31,0.00,,,0.00,,2013-01-06 23:00:00,
2013-01-06 17:33:00,52.0,23.0,-100.00,North,10,7.0,-999.0,31,0.00,,,0.00,,2013-01-06 23:33:00,
2013-01-06 17:43:00,52.0,23.0,-100.00,North,10,7.0,-999.0,31,0.00,,,0.00,,2013-01-06 23:43:00,
2013-01-06 17:53:00,52.0,23.0,-100.00,North,10,7.0,-999.0,31,0.00,,,0.00,,2013-01-06 23:53:00,
2013-01-06 18:00:00,48.0,23.0,-100.00,North,356,0.0,-999.0,36,0.00,,,0.00,,2013-01-07 00:00:00,
2013-01-06 18:33:00,48.0,23.0,-100.00,North,356,0.0,-999.0,36,0.00,,,0.00,,2013-01-07 00:33:00,
2013-01-06 18:43:00,48.0,23.0,-100.00,North,356,0.0,-999.0,36,0.00,,,0.00,,2013-01-07 00:43:00,
2013-01-06 18:53:00,48.0,23.0,-100.00,North,356,0.0,-999.0,36,0.00,,,0.00,,2013-01-07 00:53:00,
2013-01-06 19:00:00,41.0,27.0,-100.00,North,354,0.0,-999.0,56,0.00,,,0.00,,2013-01-07 01:00:00,
2013-01-06 19:32:00,41.0,27.0,-100.00,North,354,0.0,-999.0,56,0.00,,,0.00,,2013-01-07 01:32:00,
2013-01-06 19:43:00,41.0,27.0,-100.00,North,354,0.0,-999.0,56,0.00,,,0.00,,2013-01-07 01:43:00,
2013-01-06 19:53:00,41.0,27.0,-100.00,North,354,0.0,-999.0,56,0.00,,,0.00,,2013-01-07 01:53:00,
2013-01-06 20:00:00,36.0,28.0,-100.00,North,7,0.0,-999.0,72,0.00,,,0.00,,2013-01-07 02:00:00,
2013-01-06 20:32:00,36.0,28.0,-100.00,North,7,0.0,-999.0,72,0.00,,,0.00,,2013-01-07 02:32:00,
2013-01-06 20:43:00,36.0,28.0,-100.00,North,7,0.0,-999.0,72,0.00,,,0.00,,2013-01-07 02:43:00,
2013-01-06 20:53:00,36.0,28.0,-100.00,North,7,0.0,-999.0,72,0.00,,,0.00,,2013-01-07 02:53:00,
2013-01-06 21:00:00,34.0,28.0,-100.00,North,9,2.0,-999.0,77,0.00,,,0.00,,2013-01-07 03:00:00,
2013-01-06 21:33:00,34.0,28.0,-100.00,North,9,2.0,-999.0,77,0.00,,,0.00,,2013-01-07 03:33:00,
2013-01-06 21:43:00,34.0,28.0,-100.00,North,9,2.0,-999.0,77,0.00,,,0.00,,2013-01-07 03:43:00,
2013-01-06 21:53:00,34.0,28.0,-100.00,North,9,2.0,-999.0,77,0.00,,,0.00,,2013-01-07 03:53:00,
2013-01-06 22:00:00,32.0,26.0,-100.00,North,350,0.0,-999.0,79,0.00,,,0.00,,2013-01-07 04:00:00,
2013-01-06 22:32:00,32.0,26.0,-100.00,North,350,0.0,-999.0,79,0.00,,,0.00,,2013-01-07 04:32:00,
2013-01-06 22:42:00,32.0,26.0,-100.00,North,350,0.0,-999.0,79,0.00,,,0.00,,2013-01-07 04:42:00,
2013-01-06 22:52:00,32.0,26.0,-100.00,North,350,0.0,-999.0,79,0.00,,,0.00,,2013-01-07 04:52:00,
2013-01-06 23:00:00,30.0,26.0,-100.00,North,358,1.0,-999.0,83,0.00,,,0.00,,2013-01-07 05:00:00,
2013-01-06 23:33:00,30.0,26.0,-100.00,North,358,1.0,-999.0,83,0.00,,,0.00,,2013-01-07 05:33:00,
2013-01-06 23:43:00,30.0,26.0,-100.00,North,358,1.0,-999.0,83,0.00,,,0.00,,2013-01-07 05:43:00,
2013-01-06 23:53:00,30.0,26.0,-100.00,North,358,1.0,-999.0,83,0.00,,,0.00,,2013-01-07 05:53:00,